sat.trackr.live / text

‹ back to catalog

STELLA

NORAD 22824 · 1993-061B

PAYLOAD ACTIVE UNKNOWN

§ Identity

Operator
Country
FR
Launch date
1993-09-26
Launch site
FRGUI
Launch vehicle
Mass (kg)
RCS (m²)
0.17

Purposes: science

External: N2YO · Heavens-Above · Gunter

§ Orbital elements

Epoch: 2026-09-14T21:51:11.200320Z

Period
100.88 min
Inclination
98.7635°
Eccentricity
0.0006017
Mean motion
14.27472413 rev/d
Perigee alt
795.9 km
Apogee alt
804.5 km
Semi-major
7,178.3 km
B*
4.9314e-6
RAAN
322.4443°
Arg perigee
345.8028°
Mean anomaly
68.9748°
Rev number
71,757

§ Raw data

STELLA1 22824U 93061B   26257.91054630 -.00000033  00000+0  49314-5 0  99992 22824  98.7635 322.4443 0006017 345.8028  68.9748 14.27472413717578

JSON: /api/v1/satellites/22824 · /tle

For live sub-satellite position, see the globe view (requires WebGL).

§ Visibility from observer

Set your observer location to see the next 7 days of passes ≥ 10°. The values pass through the URL so the page stays shareable.

No JS? Fill the form by hand. The geolocation button needs JavaScript.